Probability
0 0 0 0 0 1 0 0 0 0 1 1 0 0 0 1 2 3 2 1 0 0 0 1 3 3 4 5 6 6 5 3 2 1 0 0 0 0 0 0 0 0 0
0 0 0 0 0 1 0 0 0 1 2 1 0 0 0 0 1 3 2 1 0 0 0 2 3 3 3 4 5 5 4 2 1 0 0 0 0 0 0 0 0 0 0
0 0 0 0 0 0 0 1 1 1 1 1 0 0 0 0 1 2 2 1 0 0 0 1 2 2 2 2 3 3 2 1 0 0 0 0 0 0 0 0 0 0 0
0 0 0 0 0 0 0 1 1 0 0 0 0 0 0 0 0 1 1 0 0 0 0 0 1 1 1 1 2 2 1 0 0 0 0 0 0 0 0 0 0 0 0
0 0 0 0 0 0 0 0 0 0 0 0 0 0 0 0 0 0 0 0 0 0 0 0 0 0 0 0 1 1 1 0 0 0 0 0 0 0 0 0 0 0 0
0 0 0 0 0 0 0 0 0 0 0 0 0 0 0 0 0 0 0 0 0 0 0 0 0 0 0 0 0 0 0 0 0 0 0 0 0 0 0 0 0 0 0
0 0 0 0 0 0 0 0 0 0 0 0 0 0 0 0 0 0 0 0 0 0 0 0 0 0 0 0 0 0 0 0 0 0 0 0 0 0 0 0 0 0 0
0 0 0 0 0 0 0 0 0 0 0 0 0 0 0 0 0 0 0 0 0 0 0 0 0 0 0 0 0 0 0 0 0 0 0 0 0 0 0 0 0 0 0
0 0 0 0 0 0 0 0 0 0 0 0 0 0 0 0 0 0 0 0 0 0 0 0 0 0 0 0 0 0 0 0 0 0 0 0 0 0 0 0 0 0 0
0 0 0 0 0 0 0 0 0 0 0 0 0 0 0 0 0 0 0 0 0 0 0 0 0 0 0 0 0 0 0 0 0 0 0 0 0 0 0 0 0 0 0
0 0 0 0 0 0 0 0 0 0 0 0 0 0 0 0 0 0 0 0 0 0 0 0 0 0 0 0 0 0 0 0 0 0 0 0 0 0 0 0 0 0 0
0 0 0 0 0 0 0 0 0 0 0 0 0 0 0 0 0 0 0 0 0 0 0 0 0 0 0 0 0 0 0 0 0 0 0 0 0 0 0 0 0 0 0
0 0 0 0 0 0 0 0 0 0 0 0 0 0 0 0 0 0 0 0 0 0 0 0 0 0 0 0 0 0 0 0 0 0 0 0 0 0 0 0 0 0 0
0 0 0 0 0 0 0 0 0 0 0 0 0 0 0 0 0 0 0 0 0 0 0 0 0 0 0 0 0 0 0 0 0 0 0 0 0 0 0 0 0 0 0
0 0 0 0 0 0 0 0 0 0 0 0 0 0 0 0 0 0 0 0 0 0 0 0 0 0 0 0 0 0 0 0 0 0 0 0 0 0 0 0 0 0 0
0 0 0 0 0 0 0 0 0 0 0 0 0 0 0 0 0 0 0 0 0 0 0 0 0 0 0 0 0 0 0 0 0 0 0 0 0 0 0 0 0 0 0
0 0 0 0 0 0 0 0 0 0 0 0 0 0 0 0 0 0 0 0 0 0 0 0 0 0 0 0 0 0 0 0 0 0 0 0 0 0 0 0 0 0 0
0 0 0 0 0 0 0 0 0 0 0 0 0 0 0 0 0 0 0 0 0 0 0 0 0 0 0 0 0 0 0 0 0 0 0 0 0 0 0 0 0 0 0
0 0 0 0 0 0 0 0 0 0 0 0 0 0 0 0 0 0 0 0 0 0 0 0 0 0 0 0 0 0 0 0 0 0 0 0 0 0 0 0 0 0 0
0 0 0 0 0 0 0 0 0 0 0 0 0 0 0 0 0 0 0 0 0 0 0 0 0 0 0 0 0 0 0 0 0 0 0 0 0 0 0 0 0 0 0
0 0 0 0 0 0 0 0 0 0 0 0 0 0 0 0 0 0 0 0 0 0 0 0 0 0 0 0 0 0 0 0 0 0 0 0 0 0 0 0 0 0 0
0 0 0 0 0 0 0 0 0 0 0 0 0 0 0 0 0 0 0 0 0 0 0 0 0 0 0 0 0 0 0 0 0 0 0 0 0 0 0 0 0 0 0
0 0 0 0 0 0 0 0 0 0 0 0 0 0 0 0 0 0 0 0 0 0 0 0 0 0 0 0 0 0 0 0 0 0 0 0 0 0 0 0 0 0 0
0 0 0 0 0 0 0 0 0 0 0 0 0 0 0 0 0 0 0 0 0 0 0 0 0 0 0 0 0 0 0 0 0 0 0 0 0 0 0 0 0 0 0
0 0 0 0 0 0 0 0 0 0 0 0 0 0 0 0 0 0 0 0 0 0 0 0 0 0 0 0 0 0 0 0 0 0 0 0 0 0 0 0 0 0 0
0 0 0 0 0 0 0 0 0 0 0 0 0 0 0 0 0 0 0 0 0 0 0 0 0 0 0 0 0 0 0 0 0 0 0 0 0 0 0 0 0 0 0
Wind_Speed
3 3 3 3 3 3 3 3 3 2 2 2 2 2 1 1 1 1 1 1 1 1 2 1 1 1 1 1 2 2 1 1 1 2 1 1 2 1 1 2 1 2 2
3 3 3 3 3 3 3 3 3 2 2 1 1 1 1 1 1 0 0 0 0 1 1 1 1 1 1 1 1 2 1 1 1 2 2 2 2 1 1 2 1 2 2
3 3 3 3 3 3 2 2 2 2 2 2 1 1 1 1 2 2 1 1 1 0 1 2 1 1 1 1 1 2 2 1 1 1 2 2 2 2 2 2 2 2 3
3 3 3 3 3 2 2 2 2 2 2 2 2 2 2 2 2 1 1 1 1 1 1 1 1 1 1 2 2 2 2 2 2 1 1 2 2 3 2 2 2 3 4
2 3 3 2 2 2 2 2 2 2 2 2 2 2 2 1 1 2 2 2 1 1 1 2 1 1 1 2 2 2 2 2 2 2 2 2 3 4 4 4 3 3 3
3 3 3 2 2 2 2 2 2 2 2 2 2 3 3 2 3 3 3 2 2 1 2 2 2 2 1 2 2 2 2 2 2 2 2 3 3 3 3 5 5 5 4
2 3 3 2 2 2 2 2 2 2 2 2 2 3 3 3 4 3 3 3 2 2 2 2 2 2 2 2 2 2 2 3 3 3 3 3 3 3 4 5 5 6 4
2 3 3 3 2 2 3 3 3 3 3 3 3 3 3 3 3 3 3 3 2 2 2 3 3 3 2 2 2 2 3 3 3 3 3 3 3 3 3 4 4 5 5
2 2 2 3 2 3 3 3 3 3 3 3 3 3 3 3 3 3 3 3 2 2 3 3 3 3 3 3 2 2 3 3 3 3 3 3 3 3 3 3 4 5 6
1 1 2 2 2 2 2 3 3 3 3 3 3 3 3 3 3 3 3 3 3 2 3 3 3 3 3 3 3 3 3 3 3 3 3 3 3 2 3 3 3 4 5
2 1 2 2 2 2 2 2 3 3 3 3 3 4 3 3 3 3 3 3 3 3 3 3 3 3 3 3 3 3 3 3 3 3 4 4 4 3 3 3 4 4 5
2 2 2 2 2 2 3 3 3 3 3 3 3 4 3 3 3 4 4 3 3 3 3 3 3 3 3 3 4 4 3 4 4 4 4 4 3 4 4 4 4 4 5
2 2 2 2 3 3 3 3 3 3 3 3 3 4 4 4 4 4 4 3 4 4 3 4 4 4 4 4 4 4 4 4 4 4 5 5 4 5 4 5 5 4 5
2 2 3 3 3 3 3 3 3 3 3 3 4 4 4 4 4 4 4 4 4 4 4 4 4 4 4 4 5 5 5 5 5 5 5 5 5 6 5 5 5 5 5
3 3 3 3 3 3 3 3 3 3 3 4 4 5 4 4 4 4 4 4 4 5 4 4 4 5 4 4 5 5 5 5 5 5 5 5 6 6 6 5 5 5 5
5 4 4 4 4 4 4 4 4 4 4 4 5 4 4 4 4 4 4 4 5 5 5 5 5 5 4 5 7 6 5 6 6 6 5 5 6 6 8 9 9 8 7
6 5 5 5 5 4 4 4 4 4 4 5 5 4 4 4 4 4 4 5 5 5 5 5 5 6 6 7 8 9 6 6 6 6 5 4 4 6 6 7 9 9 10
6 6 5 5 5 4 4 4 4 4 5 5 5 5 5 5 5 5 5 5 5 5 5 5 6 6 6 7 8 9 7 6 6 6 6 6 6 5 6 6 7 7 7
6 6 5 5 5 5 4 4 4 4 5 5 6 5 5 6 5 6 6 5 5 5 5 5 6 6 6 7 8 8 5 6 7 6 6 6 6 7 7 6 7 7 7
5 5 4 4 5 4 3 4 5 5 6 6 6 5 5 6 6 6 6 5 5 5 5 5 6 6 6 7 8 8 5 6 6 5 6 8 8 8 8 6 6 7 7
6 5 5 5 5 4 4 5 6 6 6 5 5 6 6 6 6 6 5 5 5 5 5 5 5 6 6 7 8 8 5 5 5 5 5 5 8 9 9 8 6 7 7
6 5 5 5 4 4 4 6 7 6 5 5 5 6 6 5 5 5 5 5 5 5 5 5 5 4 5 6 7 8 9 7 6 6 5 5 7 8 9 7 7 8 7
6 5 5 6 5 5 5 7 7 5 5 5 6 6 6 5 5 5 5 4 4 4 4 4 4 4 4 4 8 9 9 10 7 5 7 7 7 7 6 7 8 7 5
6 5 5 6 6 6 6 7 6 5 5 6 6 5 5 5 5 4 4 4 4 4 4 4 4 4 4 4 3 4 5 7 7 6 6 8 7 6 6 5 5 4 4
6 6 6 7 7 6 7 6 6 5 6 6 6 5 5 5 5 5 5 5 5 5 5 5 4 4 5 5 6 4 4 4 4 4 3 3 3 4 4 4 4 3 3
7 7 7 8 7 7 7 7 6 6 6 6 6 4 4 4 4 4 4 6 7 8 9 9 7 6 7 7 7 8 8 8 6 5 4 4 4 4 4 4 4 4 4
Wind_Direction
149 137 138 135 135 133 138 141 140 140 150 163 171 166 177 179 173 129 62 33 3 329 293 271 257 282 294 318 326 312 293 332 331 289 293 275 254 263 276 301 301 325 331
158 154 149 137 143 142 143 141 151 151 160 171 154 174 182 213 209 208 199 304 3 349 325 295 270 270 273 281 317 312 282 301 318 295 281 268 230 192 287 296 295 317 330
190 171 163 161 158 151 153 156 158 156 161 157 139 141 172 199 205 210 215 232 247 237 299 309 291 288 279 274 289 301 279 263 259 291 286 281 284 316 251 265 280 308 317
190 181 178 179 175 166 155 161 165 169 166 173 186 194 222 237 246 250 232 228 235 233 246 282 274 272 278 284 290 302 276 258 251 242 267 289 301 274 281 248 267 301 304
189 187 185 189 178 161 157 167 173 178 178 191 202 215 222 241 248 248 237 239 238 251 250 257 259 258 270 286 290 290 268 254 256 253 256 254 258 256 264 272 279 286 286
181 181 170 165 160 153 159 175 185 189 193 205 211 222 230 230 231 242 249 249 242 244 254 250 248 252 260 274 277 277 272 259 252 252 251 256 252 257 265 273 285 287 288
183 176 172 172 170 173 182 194 202 209 213 216 221 230 238 240 243 253 257 260 256 251 253 252 250 253 250 246 258 264 272 264 250 247 252 255 261 269 270 271 279 283 289
180 186 190 194 194 195 201 204 213 224 227 229 236 240 239 244 248 249 256 257 262 265 259 253 250 252 253 243 236 245 256 254 246 246 251 253 260 262 264 268 278 280 276
189 196 199 199 200 206 214 217 220 229 232 235 240 243 242 244 250 257 259 258 254 258 254 249 247 247 249 253 245 243 254 243 240 245 248 251 257 263 267 265 267 275 282
233 216 210 213 215 217 219 217 225 232 238 240 241 247 249 250 251 251 249 250 252 252 251 249 247 248 246 247 247 245 250 243 237 242 246 253 262 260 265 264 265 267 276
270 247 233 229 230 224 218 216 226 233 240 245 248 249 252 254 252 249 251 252 248 245 246 246 249 254 255 252 245 245 248 248 245 240 241 249 260 264 265 265 266 267 270
268 253 238 230 232 232 228 227 233 239 246 250 252 253 255 253 253 255 255 254 253 249 249 248 248 251 256 256 253 250 249 252 253 249 243 249 255 263 267 266 266 267 271
264 250 239 236 237 240 240 240 243 248 251 251 251 252 249 247 250 255 259 255 252 248 245 243 242 247 253 254 255 255 253 255 259 258 254 256 257 263 264 267 269 270 273
262 261 259 249 245 246 247 248 250 251 250 248 248 249 250 250 253 255 256 256 253 247 243 242 243 245 247 251 253 254 255 257 258 259 258 257 255 260 264 265 267 271 273
266 264 264 259 251 253 254 255 253 250 246 246 248 253 257 257 257 255 255 255 253 250 247 246 247 246 245 246 250 252 255 258 260 258 257 257 262 268 269 267 268 269 269
263 265 264 263 259 257 256 255 252 248 245 248 252 257 258 255 253 254 254 253 253 250 246 245 247 248 246 243 244 251 253 255 257 261 261 260 256 260 263 267 269 268 266
267 264 264 265 267 264 256 252 249 245 245 250 255 254 253 253 253 254 252 252 255 252 248 248 248 250 251 246 246 246 251 252 255 259 260 259 260 262 264 265 266 264 263
272 269 267 266 269 267 259 252 245 240 242 249 253 254 252 255 257 253 252 254 255 254 252 252 252 255 256 251 251 250 247 250 252 254 255 258 263 259 266 273 271 270 266
276 274 269 266 267 262 253 247 245 243 244 249 252 253 252 254 255 255 257 258 257 257 256 256 254 255 258 250 252 253 251 249 253 253 252 255 259 260 266 271 272 277 277
281 275 272 268 263 259 246 243 248 249 250 254 259 259 254 252 253 256 260 259 257 260 261 257 255 255 259 251 249 250 248 251 254 254 250 249 256 263 265 265 267 273 281
289 282 272 266 265 260 247 250 254 255 259 262 261 260 256 253 255 258 258 256 255 257 259 259 260 258 258 255 249 248 246 247 254 254 253 249 253 260 264 266 266 275 289
289 283 276 274 272 257 246 253 259 266 266 259 257 258 257 255 251 252 254 251 249 252 257 260 266 263 256 252 251 250 249 252 251 253 256 258 257 260 264 264 270 277 281
283 282 279 278 274 261 250 256 265 267 262 258 258 260 259 255 250 247 248 247 243 247 255 257 263 268 264 255 250 253 253 254 255 257 260 264 262 262 261 262 270 271 266
278 278 276 273 273 269 261 262 266 261 255 257 261 260 258 257 252 246 242 241 240 245 253 255 259 266 267 261 253 249 250 253 254 256 254 252 253 255 261 265 262 259 262
274 270 266 268 274 276 271 267 262 254 253 257 258 256 253 252 252 247 244 245 245 244 250 256 258 260 263 262 260 258 246 244 246 251 245 240 243 247 251 256 261 262 262
273 269 265 266 270 272 272 269 259 248 248 252 253 250 247 247 247 251 256 245 249 255 255 261 264 262 266 276 267 263 259 251 243 240 241 242 244 248 254 258 260 259 260